"Time","Temp","Dewpoint","Humidity","Pressure","Direction","Speed","Gust","Precip","PrecipRate"
"00:04:56","75.2","71.1","87","30.16","185","2.6","6","0.00","0.00"
"00:09:58","75.2","70.8","86.5","30.16","179","2.8","5","0.00","0.00"
"00:14:57","75.2","70.7","86","30.16","182","2.8","7","0.00","0.00"
"00:19:57","75.2","70.7","86","30.16","161","2.7","6","0.00","0.00"
"00:24:56","75.1","70.7","86.3","30.16","184","3","7","0.00","0.00"
"00:29:59","75","70.9","87","30.16","167","2.3","4","0.00","0.00"
"00:34:58","74.9","70.8","87","30.16","153","2","4","0.00","0.00"
"00:39:59","74.8","70.7","87","30.16","172","2.2","5","0.00","0.00"
"00:44:58","74.6","70.5","87","30.16","176","2.6","5","0.00","0.00"
"00:49:57","74.4","70.5","87.6","30.16","170","2.4","5","0.00","0.00"
"00:54:59","74.3","70.5","88","30.16","171","2.8","6","0.00","0.00"
"00:59:58","74.2","70.4","88","30.16","166","2.3","5","0.00","0.00"
"01:04:56","74.2","70.4","88","30.16","188","2.7","7","0.00","0.00"
"01:09:58","74.1","70.3","88","30.16","181","1.8","4","0.00","0.00"
"01:14:59","74","70.2","88.1","30.16","186","2.9","7","0.00","0.00"
"01:19:58","73.9","70.1","88.1","30.16","172","2.4","6.9","0.00","0.00"
"01:24:57","73.8","70.4","89","30.16","175","2.1","6","0.00","0.00"
"01:29:56","73.7","70.3","89","30.16","181","2.9","6","0.00","0.00"
"01:34:59","73.7","70.3","89","30.16","152","1.9","4","0.00","0.00"
"01:39:57","73.6","70.2","89","30.16","163","1.6","3.5","0.00","0.00"
"01:44:57","73.5","70.2","89.4","30.16","172","1.6","5","0.00","0.00"
"01:49:56","73.4","70.3","90","30.16","175","2.3","5","0.00","0.00"
"01:54:59","73.3","70.2","90","30.16","151","2.5","6","0.00","0.00"
"01:59:58","73.2","70.1","90","30.16","179","2.2","5.8","0.00","0.00"
"02:04:56","73.1","70","90","30.16","173","1.9","6","0.00","0.00"
"02:09:59","73.1","70.1","90.5","30.16","154","2.8","6","0.00","0.00"
"02:14:56","73","70.2","91","30.16","176","3.1","5","0.00","0.00"
"02:19:55","73","70.2","91","30.16","161","2.4","7","0.00","0.00"
"02:24:59","73","70.2","91","30.16","165","3.1","6","0.00","0.00"
"02:29:58","72.9","70.1","91","30.16","167","2","5.8","0.00","0.00"
"02:34:57","72.8","70","91","30.15","176","2.5","5","0.00","0.00"
"02:39:59","72.8","70","91.2","30.15","151","2.3","5","0.00","0.00"
"02:44:59","72.7","70.2","91.9","30.15","160","2.2","4","0.00","0.00"
"02:49:58","72.6","69.9","91.3","30.15","177","1.8","5","0.00","0.00"
"02:54:57","72.5","70","92","30.15","170","2.6","5","0.00","0.00"
"02:59:56","72.4","69.9","92","30.16","185","1.7","5","0.00","0.00"
"03:04:59","72.3","69.8","92","30.16","176","0.9","3.5","0.00","0.00"
"03:09:57","72.3","69.8","92","30.16","173","0.8","3.5","0.00","0.00"
"03:14:59","72.2","69.7","92","30.16","171","0.7","3.5","0.00","0.00"
"03:19:58","72.2","70","92.8","30.16","171","0.5","2.3","0.00","0.00"
"03:24:57","72.1","69.8","92.6","30.16","171","0.5","2.3","0.00","0.00"
"03:29:57","72","69.9","93","30.16","144","1.5","5","0.00","0.00"
"03:34:58","71.9","69.8","93","30.15","152","2.3","4.6","0.00","0.00"
"03:39:59","71.8","69.7","93","30.15","169","2.5","5","0.00","0.00"
"03:44:57","71.8","69.7","93","30.15","157","2","5","0.00","0.00"
"03:49:56","71.7","69.7","93.1","30.15","167","2","4","0.00","0.00"
"03:54:59","71.7","69.9","94","30.15","179","2.2","6","0.00","0.00"
"03:59:57","71.7","69.9","94","30.15","166","2.4","5","0.00","0.00"
"04:04:58","71.6","69.8","94","30.15","168","2.1","5","0.00","0.00"
"04:09:57","71.6","69.8","94","30.15","162","2.2","5","0.00","0.00"
"04:14:57","71.5","69.7","94","30.15","144","1.5","6","0.00","0.00"
"04:19:55","71.5","69.7","94","30.15","170","2.2","6","0.00","0.00"
"04:24:59","71.5","69.7","94","30.15","154","2","4","0.00","0.00"
"04:29:58","71.4","69.6","94","30.15","171","2","4","0.00","0.00"
"04:34:56","71.3","69.5","94","30.15","168","2","5","0.00","0.00"
"04:39:58","71.2","69.5","94.1","30.15","140","1.9","5","0.00","0.00"
"04:44:58","71.2","69.7","95","30.15","155","2.2","5","0.00","0.00"
"04:49:57","71.2","69.7","95","30.15","185","2.3","5","0.00","0.00"
"04:54:59","71.2","69.7","95","30.15","152","2","4","0.00","0.00"
"04:59:58","71.1","69.6","95","30.15","150","1.6","5","0.00","0.00"
"05:04:56","71.1","69.6","95","30.15","157","2.2","5","0.00","0.00"
"05:09:59","71","69.5","95","30.15","177","2.4","6","0.00","0.00"
"05:14:57","71","69.5","95","30.15","187","1.1","4","0.00","0.00"
"05:19:56","70.9","69.4","95","30.15","173","1.7","4","0.00","0.00"
"05:24:59","70.9","69.4","95","30.15","169","1.3","4","0.00","0.00"
"05:29:58","70.9","69.4","95","30.15","146","1.1","3.5","0.00","0.00"
"05:34:58","70.9","69.4","95","30.15","147","0.7","3.5","0.00","0.00"
"05:39:56","70.8","69.3","95","30.15","153","0.6","3.5","0.00","0.00"
"05:44:56","70.8","69.3","95","30.15","154","0.2","3","0.00","0.00"
"05:49:56","70.8","69.6","95.7","30.15","154","0","1.2","0.00","0.00"
"05:54:59","70.9","69.7","96","30.15","157","0.6","3.5","0.00","0.00"
"05:59:55","71","69.8","96","30.16","158","0.3","2.3","0.00","0.00"
"06:04:59","71","69.8","96","30.16","158","0","1.2","0.00","0.00"
"06:09:59","71.1","69.9","96","30.16","163","0.6","3.5","0.00","0.00"
"06:14:57","71.2","70","96","30.16","165","0.5","2.3","0.00","0.00"
"06:19:57","71.3","70.1","96","30.16","165","0.3","2.3","0.00","0.00"
"06:24:59","71.3","70.1","96","30.16","163","0.9","3.5","0.00","0.00"
"06:29:58","71.5","70.3","96","30.17","163","1.3","3.5","0.00","0.00"
"06:34:56","71.5","70.3","96","30.17","163","0.3","3","0.00","0.00"
"06:39:58","71.6","70.4","95.8","30.17","152","2","5","0.00","0.00"
"06:44:56","71.7","70.3","95.3","30.17","157","1.5","3.5","0.00","0.00"
"06:49:59","71.7","70.3","95.2","30.17","174","1.6","4","0.00","0.00"
"06:54:57","71.8","70.5","95.7","30.17","162","0.8","3.5","0.00","0.00"
"06:59:59","71.9","70.5","95.2","30.17","161","1.7","6","0.00","0.00"
"07:04:57","72","70.5","95","30.17","170","1.5","4","0.00","0.00"
"07:09:56","72","70.5","95","30.17","151","1.4","4","0.00","0.00"
"07:14:58","72.1","70.6","95","30.18","188","1.8","4","0.00","0.00"
"07:19:56","72.2","70.7","95","30.18","186","1.8","6","0.00","0.00"
"07:24:58","72.3","70.8","95","30.18","186","2","5","0.00","0.00"
"07:29:56","72.4","70.9","95","30.18","177","1.4","4","0.00","0.00"
"07:34:59","72.5","71","95","30.17","181","1.1","5","0.00","0.00"
"07:39:59","72.6","71","94.5","30.17","170","2","6","0.00","0.00"
"07:44:58","72.8","71","94.1","30.18","208","2.2","6","0.00","0.00"
"07:49:56","72.9","71.3","94.8","30.18","195","2.2","6","0.00","0.00"
"07:54:59","73","71.2","94","30.18","186","2.7","5","0.00","0.00"
"07:59:58","73.1","71.3","94","30.18","196","2.1","5","0.00","0.00"
"08:04:56","73.3","71.5","93.9","30.18","185","1.9","4","0.00","0.00"
"08:09:59","73.4","71.4","93.3","30.18","197","1.6","4","0.00","0.00"
"08:14:56","73.5","71.5","93.4","30.18","180","2.2","5","0.00","0.00"
"08:19:59","73.6","71.4","93","30.18","208","2.5","5","0.00","0.00"
"08:24:58","73.7","71.5","93","30.18","263","1.6","3.5","0.00","0.00"
"08:29:56","73.9","71.7","93","30.19","234","1.4","4","0.00","0.00"
"08:34:58","74.1","71.8","92.7","30.19","203","1.7","3.5","0.00","0.00"
"08:39:56","74.4","72.1","92.8","30.19","204","1.2","4","0.00","0.00"
"08:44:58","74.6","71.9","91.5","30.19","179","1.9","6","0.00","0.00"
"08:49:56","74.8","72","91.2","30.19","202","3.1","7","0.00","0.00"
"08:54:57","75","72.3","91.3","30.19","187","2.7","6","0.00","0.00"
"08:59:56","75.1","72.1","90.3","30.20","201","3.2","8","0.00","0.00"
"09:04:57","75.3","72.2","90","30.20","188","2.6","6","0.00","0.00"
"09:09:59","75.5","72.5","90.5","30.20","173","2.2","4","0.00","0.00"
"09:14:56","75.8","72.7","90.1","30.20","184","2.7","7","0.00","0.00"
"09:19:58","76","72.5","89","30.20","189","3.3","5","0.00","0.00"
"09:24:56","76.2","72.7","89","30.20","178","2.8","7","0.00","0.00"
"09:29:57","76.6","72.9","88.3","30.20","192","2.5","6","0.00","0.00"
"09:34:59","77.1","73.3","88.3","30.20","179","2.4","9.2","0.00","0.00"
"09:39:59","77.5","73.4","87.3","30.20","191","2.5","6","0.00","0.00"
"09:44:57","77.6","73.2","86.4","30.20","198","2.6","5","0.00","0.00"
"09:49:58","77.7","73.6","87.2","30.20","198","2","3.5","0.00","0.00"
"09:54:59","78.1","73.6","86.2","30.20","198","3","5","0.00","0.00"
"09:59:56","78.3","73.4","85.1","30.20","185","2.8","5","0.00","0.00"
"10:04:57","78.5","73.8","85.6","30.20","205","2","5","0.00","0.00"
"10:09:59","78.7","74","85.6","30.20","189","2.2","5","0.00","0.00"
"10:14:59","79.1","74.2","85","30.20","191","2.6","6","0.00","0.00"
"10:19:59","79.6","74.3","84","30.20","186","2.5","5","0.00","0.00"
"10:24:56","79.8","74.2","82.9","30.20","197","2.3","5","0.00","0.00"
"10:29:56","80.1","74.5","83.1","30.20","239","2","5","0.00","0.00"
"10:34:56","80.2","74.4","82.4","30.19","205","2.7","6","0.00","0.00"
"10:39:56","80.4","74.5","82.3","30.19","182","3.2","6","0.00","0.00"
"10:44:57","80.8","74.9","82.5","30.19","164","2.8","10","0.00","0.00"
"10:49:57","81.5","75.2","81.3","30.19","184","3","7","0.00","0.00"
"10:54:57","82.1","75.5","80.5","30.19","187","3.2","6","0.00","0.00"
"10:59:58","82.6","75.5","79.2","30.19","181","3.1","6","0.00","0.00"
"11:04:58","83","75.2","77.4","30.19","182","3.7","10.4","0.00","0.00"
"11:09:56","83.3","75.3","77.1","30.19","195","5","10.4","0.00","0.00"
"11:14:56","83.4","75.3","76.8","30.19","181","5.3","10.4","0.00","0.00"
"11:19:56","83.5","75.2","76.2","30.19","154","3.3","7","0.00","0.00"
"11:24:56","83.8","75.5","76.1","30.19","153","3.5","10.4","0.00","0.00"
"11:29:56","84.1","75.5","75.6","30.19","168","3.1","7","0.00","0.00"
"11:34:56","84.3","75.6","75.1","30.19","165","3.9","11","0.00","0.00"
"11:39:59","84.5","75.6","74.8","30.19","191","4.3","10.4","0.00","0.00"
"11:44:59","84.7","75.4","74","30.19","189","4.7","10.4","0.00","0.00"
"11:49:59","84.7","75.5","74","30.19","184","5.3","10.4","0.00","0.00"
"11:54:59","84.8","75.5","73.7","30.19","184","3.1","7","0.00","0.00"
"11:59:56","84.7","75.6","74.2","30.19","186","2.8","6","0.00","0.00"
"12:04:56","84.7","75.7","74.5","30.19","209","4.2","10","0.00","0.00"
"12:09:58","85","75.8","74.1","30.19","189","5.4","13","0.00","0.00"
"12:14:57","85.4","75.8","73","30.19","189","4","11.5","0.00","0.00"
"12:19:57","85.8","75.9","72.3","30.19","179","4.8","10.4","0.00","0.00"
"12:24:58","86.2","76.3","72.4","30.19","185","3.9","9.2","0.00","0.00"
"12:29:58","86.6","76.1","71.1","30.19","181","3.9","10.4","0.00","0.00"
"12:34:59","86.8","76.9","72.4","30.18","205","3.5","7","0.00","0.00"
"12:39:58","87","76.3","70.6","30.18","189","4.2","10.4","0.00","0.00"
"12:44:59","87.1","76.6","71.3","30.18","188","3.4","10","0.00","0.00"
"12:49:55","86.6","75.4","69.5","30.18","195","3.6","10.4","0.00","0.00"
"12:54:56","86.2","75.9","71.5","30.18","205","3.4","9.2","0.00","0.00"
"12:59:56","86.1","75.3","70.2","30.18","185","5","12","0.00","0.00"
"13:04:56","86.2","75.4","70.4","30.18","199","3.9","9.2","0.00","0.00"
"13:09:57","86.9","76.7","71.9","30.18","185","4","12","0.00","0.00"
"13:14:56","87.6","76.8","70.4","30.18","209","4.8","10.4","0.00","0.00"
"13:19:56","87.9","76.2","68.5","30.18","178","3.5","7","0.00","0.00"
"13:24:56","88.2","76.6","68.8","30.18","203","6.9","15","0.00","0.00"
"13:29:56","88.4","75.9","66.7","30.18","182","4.9","11.5","0.00","0.00"
"13:34:59","88.7","77.5","69.5","30.18","203","3.9","10.4","0.00","0.00"
"13:39:57","89","76.6","67","30.18","184","5.8","13","0.00","0.00"
"13:44:58","88.8","76.7","67.5","30.18","203","5.4","12.7","0.00","0.00"
"13:49:58","89","77","67.8","30.17","208","4.5","11","0.00","0.00"
"13:54:59","89.3","76.4","66.1","30.17","205","4.3","11.5","0.00","0.00"
"13:59:59","89.2","76.5","66.3","30.17","190","5","11.5","0.00","0.00"
"14:04:59","88.7","75.6","65.4","30.17","174","4.2","11.5","0.00","0.00"
"14:09:59","88.4","75.2","65.1","30.17","158","3.6","6","0.00","0.00"
"14:14:56","88.4","75.7","66.2","30.17","191","4.2","11","0.00","0.00"
"14:19:56","88.4","75.2","65.1","30.16","192","5.3","10.4","0.00","0.00"
"14:24:57","88.8","76.3","66.8","30.16","203","4.9","11.5","0.00","0.00"
"14:29:57","89.1","75.5","64.3","30.16","189","5.5","11.5","0.00","0.00"
"14:34:58","89.3","76.1","65.3","30.16","188","5.3","12","0.00","0.00"
"14:39:57","89.6","75.9","64.4","30.16","167","4.6","13","0.00","0.00"
"14:44:59","89.6","75.2","62.8","30.16","145","5.5","12.7","0.00","0.00"
"14:49:56","89.6","75.5","63.4","30.16","192","5.5","11","0.00","0.00"
"14:54:56","89.6","75","62.3","30.16","180","5.2","12","0.00","0.00"
"14:59:57","89.6","75.9","64.2","30.16","193","4.4","10","0.00","0.00"
"15:04:58","89.9","75.4","62.6","30.15","186","5.2","12","0.00","0.00"
"15:09:59","89.5","74.6","61.7","30.15","181","6.2","11.5","0.00","0.00"
"15:14:56","89.3","75.5","64","30.15","206","5.4","10.4","0.00","0.00"
"15:19:58","90","75.8","63.3","30.15","193","4.2","12","0.00","0.00"
"15:24:59","90.6","76","62.4","30.15","184","4.7","11.5","0.00","0.00"
"15:29:56","90.8","77","64","30.15","210","3.5","10.4","0.00","0.00"
"15:34:58","91.2","76","61.4","30.15","176","4.9","14","0.00","0.00"
"15:39:58","90.8","75.2","60.4","30.15","198","6.7","13","0.00","0.00"
"15:44:56","90.4","74.5","59.8","30.15","184","6.1","12.7","0.00","0.00"
"15:49:58","90.5","76","62.5","30.15","189","4","11.5","0.00","0.00"
"15:54:59","91","75.6","60.8","30.15","189","5.6","14","0.00","0.00"
"15:59:56","90.8","74.8","59.7","30.15","197","4.7","10.4","0.00","0.00"
"16:04:56","90.5","75","60.7","30.15","201","4.6","11.5","0.00","0.00"
"16:09:57","90.6","75.5","61.5","30.15","220","4.5","10.4","0.00","0.00"
"16:14:58","90.8","76.1","62.2","30.15","202","3.6","7","0.00","0.00"
"16:19:56","91.1","76.1","61.7","30.15","187","4.1","10","0.00","0.00"
"16:24:58","91.2","75.5","60.3","30.15","189","2.9","11.5","0.00","0.00"
"16:29:58","91","74.1","57.8","30.15","186","5.2","12","0.00","0.00"
"16:34:59","90.6","75.4","61.2","30.14","199","4.1","11.5","0.00","0.00"
"16:39:56","90.8","75.3","60.7","30.14","150","2.7","9.2","0.00","0.00"
"16:44:58","91.1","76","61.5","30.14","173","3.2","10.4","0.00","0.00"
"16:49:58","91.1","74.6","58.7","30.14","167","4.8","11","0.00","0.00"
"16:54:57","90.8","74.2","58.3","30.14","195","6","11.5","0.00","0.00"
"16:59:56","90.8","74.9","59.9","30.14","184","5.1","14","0.00","0.00"
"17:04:56","90.8","75.3","60.6","30.14","194","5.7","13","0.00","0.00"
"17:09:58","90.8","75.6","61.2","30.14","199","4.3","9.2","0.00","0.00"
"17:14:59","90.7","74.9","60","30.15","191","4.3","9","0.00","0.00"
"17:19:55","90.7","74.6","59.5","30.15","171","4.7","11.5","0.00","0.00"
"17:24:57","90.7","74.6","59.4","30.15","203","4","10","0.00","0.00"
"17:29:58","91","75.3","60.3","30.15","177","3.8","11.5","0.00","0.00"
"17:34:59","91","75.2","60.1","30.14","206","4.1","7","0.00","0.00"
"17:39:59","90.8","75.2","60.5","30.14","187","3.9","9.2","0.00","0.00"
"17:44:56","90.5","74.4","59.5","30.15","197","4.1","11","0.00","0.00"
"17:49:57","89.5","73.8","60","30.15","199","4.3","11.5","0.00","0.00"
"17:54:58","88.8","73.8","61.4","30.15","187","4","9.2","0.00","0.00"
"17:59:59","88.7","73.7","61.4","30.15","192","4.3","12","0.00","0.00"
"18:04:56","89","74.3","62","30.15","188","3.8","11.5","0.00","0.00"
"18:09:57","89.3","74.4","61.7","30.15","179","4.1","10.4","0.00","0.00"
"18:14:58","89.2","74.2","61.3","30.15","161","3.9","9.2","0.00","0.00"
"18:19:59","88.7","73.8","61.4","30.14","164","3.4","7","0.00","0.00"
"18:24:56","88.3","73.9","62.6","30.14","171","2.8","7","0.00","0.00"
"18:29:57","88.2","74","62.9","30.14","192","3.1","7","0.00","0.00"
"18:34:59","88.2","74.1","63.2","30.14","183","3.7","7","0.00","0.00"
"18:39:59","87.7","73.1","61.9","30.14","178","5.7","11.5","0.00","0.00"
"18:44:56","87.4","73.1","62.7","30.14","172","2.3","9.2","0.00","0.00"
"18:49:57","87","72.9","63.2","30.14","186","3.4","10","0.00","0.00"
"18:54:58","86.5","72.7","63.5","30.14","191","3.5","10","0.00","0.00"
"18:59:56","86.3","72.7","64","30.14","167","1.5","4","0.00","0.00"
"19:04:57","86.1","72.6","64.4","30.14","168","2.7","6","0.00","0.00"
"19:09:58","85.8","72.7","64.8","30.14","170","2.8","7","0.00","0.00"
"19:14:59","85.7","72.8","65.4","30.14","163","2.9","6","0.00","0.00"
"19:19:56","85.5","72.9","66.2","30.14","170","2.2","4.6","0.00","0.00"
"19:24:57","85.3","73.1","66.9","30.14","165","1.8","3.5","0.00","0.00"
"19:29:59","85.2","73.1","67.1","30.15","165","1.2","2.3","0.00","0.00"
"19:34:57","85.2","73","67","30.15","164","1.1","3.5","0.00","0.00"
"19:39:57","85.3","73.2","67.2","30.15","162","1.1","3.5","0.00","0.00"
"19:44:59","85.2","73.4","68","30.15","163","1.1","3.5","0.00","0.00"
"19:49:57","85","73.4","68.3","30.15","162","0.8","2.3","0.00","0.00"
"19:54:58","85","73.5","68.5","30.15","163","0.9","4","0.00","0.00"
"19:59:59","84.9","73.2","68","30.15","164","1.7","4","0.00","0.00"
"20:04:56","84.9","73.2","68","30.15","152","2.2","4","0.00","0.00"
"20:09:58","84.7","73.2","68.3","30.15","190","2.4","5","0.00","0.00"
"20:14:59","84.6","73.1","68.6","30.15","169","2.6","6","0.00","0.00"
"20:19:58","84.5","73.2","69","30.15","150","1.9","5","0.00","0.00"
"20:24:59","84.3","73.1","69.2","30.15","174","1.5","4","0.00","0.00"
"20:29:57","84.1","73.2","69.8","30.15","158","1.7","5","0.00","0.00"
"20:34:59","84","73.2","70","30.15","175","1.7","4","0.00","0.00"
"20:39:59","83.8","73.2","70.3","30.15","177","1.2","4","0.00","0.00"
"20:44:59","83.7","73.3","71","30.15","175","2.3","5","0.00","0.00"
"20:49:56","83.5","73.1","71","30.15","187","2.2","5","0.00","0.00"
"20:54:56","83.4","73.1","71.3","30.15","138","2.2","5","0.00","0.00"
"20:59:56","83.4","73.1","71.3","30.15","146","1.5","6","0.00","0.00"
"21:04:58","83.3","73.3","72","30.15","147","1.3","3.5","0.00","0.00"
"21:09:56","83.1","73.1","72","30.15","145","1.8","6","0.00","0.00"
"21:14:58","83","73","72","30.16","167","1.3","4","0.00","0.00"
"21:19:57","82.8","72.8","72","30.16","154","1.8","5","0.00","0.00"
"21:24:56","82.7","72.9","72.4","30.16","167","1.6","3.5","0.00","0.00"
"21:29:56","82.6","73","72.8","30.16","149","1.6","4","0.00","0.00"
"21:34:56","82.5","72.9","72.8","30.16","163","1.6","5","0.00","0.00"
"21:39:56","82.4","72.9","73","30.16","168","1.5","5","0.00","0.00"
"21:44:56","82.2","72.7","73","30.17","135","1.7","3.5","0.00","0.00"
"21:49:56","82.1","72.6","73","30.17","134","1.2","2.3","0.00","0.00"
"21:54:59","81.9","72.5","73.1","30.17","163","1.5","4","0.00","0.00"
"21:59:58","81.6","72.5","73.9","30.17","178","1.8","4","0.00","0.00"
"22:04:57","81.4","72.3","74","30.17","185","1.4","4","0.00","0.00"
"22:09:59","81.3","72.2","74","30.17","187","1.5","3.5","0.00","0.00"
"22:14:59","81.1","72","74","30.17","188","0.5","2.3","0.00","0.00"
"22:19:59","81","72.1","74.4","30.17","185","1.6","4","0.00","0.00"
"22:24:59","80.9","72.2","75","30.17","193","0.9","4","0.00","0.00"
"22:29:59","80.7","72","75","30.17","192","1.3","3.5","0.00","0.00"
"22:34:59","80.6","71.9","75","30.17","190","1.3","3.5","0.00","0.00"
"22:39:58","80.5","71.8","75","30.17","190","1.1","3.5","0.00","0.00"
"22:44:58","80.3","71.9","75.6","30.17","190","0.9","3","0.00","0.00"
"22:49:58","80.3","72","76","30.17","190","0.8","2.3","0.00","0.00"
"22:54:58","80.1","71.8","76","30.17","190","0.6","2.3","0.00","0.00"
"22:59:58","80","71.8","76","30.17","190","0.4","2","0.00","0.00"
"23:04:56","79.8","71.6","76.2","30.17","190","0.1","2.3","0.00","0.00"
"23:09:59","79.6","71.8","77","30.17","190","0.4","2.3","0.00","0.00"
"23:14:58","79.4","71.8","77.7","30.17","190","0.5","2.3","0.00","0.00"
"23:19:59","79.1","71.7","78","30.17","190","0.2","2.3","0.00","0.00"
"23:24:59","78.9","71.5","78","30.17","190","1.4","3.5","0.00","0.00"
"23:29:58","78.8","71.4","78","30.17","167","0.9","3.5","0.00","0.00"
"23:34:58","78.8","71.4","78","30.17","145","1.1","3.5","0.00","0.00"
"23:39:59","78.8","71.4","78.2","30.17","161","1.2","4","0.00","0.00"
"23:44:58","78.7","71.6","79","30.17","162","1.1","4","0.00","0.00"
"23:49:56","78.6","71.5","79","30.17","165","1.1","3.5","0.00","0.00"
"23:54:57","78.4","71.3","79","30.17","165","0.4","1.2","0.00","0.00"
"23:59:57","78.3","71.2","79","30.18","165","0.2","2.3","0.00","0.00"
